Weather History for Bennington, VT

Change the Weather History Date:

Monday, April 7, 2014

  Actual Average Record
Temperature  
Mean Temperature 42 °F 42 °F  
Max Temperature 58 °F 53 °F 70 °F (2005)
Min Temperature 26 °F 31 °F 17 °F (2002)
Degree Days  
Heating Degree Days 23 23  
Month to date heating degree days 168 169  
Since 1 July heating degree days 6574 6404  
Cooling Degree Days 0 0  
Month to date cooling degree days 0 0  
Year to date cooling degree days 0 0  
Moisture  
Dew Point 25 °F    
Average Humidity 52    
Maximum Humidity 81    
Minimum Humidity 23    
Precipitation  
Precipitation T in 0.11 in 0.26 in (2005)
Month to date precipitation 0.21 0.87  
Year to date precipitation 8.22 9.01  
Sea Level Pressure  
Sea Level Pressure 30.05 in    
Wind  
Wind Speed 9 mph (SE)    
Max Wind Speed 36 mph    
Max Gust Speed 54 mph    
Visibility 10 miles    
Events Rain    
T = Trace of Precipitation, MM = Missing Value Source: NWS Daily Summary

Daily Weather History Graph

Daily Weather History Graph

Search for Another Location

Airport:

Trip Planner

Search our weather history database for the weather conditions in past years. The results will help you decide how hot, cold, wet, or windy it might be!

Date:

Astronomy

Apr. 07, 2014 Rise Set
Actual Time 6:24 AM EDT 7:26 PM EDT
Civil Twilight 5:55 AM EDT 7:55 PM EDT
Nautical Twilight 5:21 AM EDT 8:29 PM EDT
Astronomical Twilight 4:45 AM EDT 9:05 PM EDT
Moon 12:14 PM EDT (4/7) 2:05 AM EDT (4/7)
Length of Visible Light 13h 59m
Length of Day
13h 01m
First Quarter, 53% of the Moon is Illuminated
Apr 7
First Quarter
Apr 15
Full
Apr 22
Last Quarter
Apr 29
New
May 6
First Quarter

Hourly Weather History & Observations

Time (EDT) Temp. Windchill Dew Point Humidity Pressure Visibility Wind Dir Wind Speed Gust Speed Precip Events Conditions
12:54 AM 30.0 °F - 21.9 °F 72% 30.19 in 10.0 mi Calm Calm - N/A   Clear
1:54 AM 30.0 °F - 24.1 °F 79% 30.19 in 10.0 mi Calm Calm - N/A   Clear
2:54 AM 30.0 °F - 23.0 °F 75% 30.19 in 10.0 mi Calm Calm - N/A   Clear
3:54 AM 30.0 °F - 23.0 °F 75% 30.17 in 10.0 mi Calm Calm - N/A   Clear
4:54 AM 28.0 °F - 23.0 °F 81% 30.17 in 10.0 mi Calm Calm - N/A   Clear
5:54 AM 28.0 °F - 21.9 °F 78% 30.18 in 10.0 mi Calm Calm - N/A   Clear
6:54 AM 27.0 °F - 21.9 °F 81% 30.17 in 10.0 mi Calm Calm - N/A   Clear
7:54 AM 35.1 °F - 26.1 °F 70% 30.18 in 10.0 mi Calm Calm - N/A   Clear
8:54 AM 42.1 °F - 27.0 °F 55% 30.17 in 10.0 mi Calm Calm - N/A   Clear
9:54 AM 50.0 °F - 27.0 °F 41% 30.16 in 10.0 mi NNE 3.5 mph - N/A   Clear
10:54 AM 57.9 °F - 19.9 °F 23% 30.15 in 10.0 mi SSE 15.0 mph 24.2 mph N/A   Clear
11:54 AM 57.0 °F - 19.0 °F 23% 30.14 in 10.0 mi South 10.4 mph 21.9 mph N/A   Clear
12:54 PM 55.9 °F - 19.9 °F 25% 30.12 in 10.0 mi SE 10.4 mph 21.9 mph N/A   Clear
1:54 PM 55.9 °F - 21.0 °F 26% 30.08 in 10.0 mi SE 12.7 mph - N/A   Clear
2:54 PM 55.0 °F - 19.9 °F 25% 30.06 in 10.0 mi SE 17.3 mph - N/A   Clear
4:54 PM 53.1 °F - 21.9 °F 30% 30.05 in 10.0 mi South 8.1 mph 17.3 mph N/A   Overcast
5:54 PM 52.0 °F - 18.0 °F 26% 30.02 in 10.0 mi SSE 12.7 mph - N/A   Overcast
6:54 PM 51.1 °F - 19.0 °F 28% 29.99 in 10.0 mi Calm Calm - N/A   Overcast
7:54 PM 51.1 °F - 19.0 °F 28% 29.95 in 10.0 mi SE 13.8 mph - N/A   Overcast
8:54 PM 48.0 °F - 25.0 °F 41% 29.92 in 10.0 mi ESE 8.1 mph 25.3 mph N/A   Overcast
9:54 PM 45.0 °F 37.4 °F 27.0 °F 49% 29.89 in 10.0 mi ESE 18.4 mph 31.1 mph 0.00 in Rain Light Rain
10:54 PM 43.0 °F 35.7 °F 36.0 °F 76% 29.81 in 10.0 mi ESE 15.0 mph 19.6 mph 0.00 in   Overcast
11:26 PM 46.9 °F - 39.0 °F 74% 29.76 in 10.0 mi SE 21.9 mph 28.8 mph N/A   Overcast
11:38 PM 46.9 °F - 39.0 °F 74% 29.73 in 10.0 mi SE 24.2 mph 42.6 mph N/A   Overcast
11:54 PM 46.9 °F - 39.0 °F 74% 29.70 in 10.0 mi SE 28.8 mph 41.4 mph 0.00 in Rain Light Rain